This is the latest recevied weather packets stored in our database for station/object W7TRD. If no packets are shown the sender has not sent any weather packets the latest 10 day(s).
| Time | Temp. | Humidity | Pressure | Rain* | Wind** | Luminosity | Snow |
|---|---|---|---|---|---|---|---|
| 1777080508 | 18.33° C | 33% | 1014.3 hPa | 0 mm | - | 87 W/m² | - |
| 1777080207 | 18.33° C | 33% | 1014.7 hPa | 0 mm | - | 136 W/m² | - |
| 1777079902 | 18.89° C | 33% | 1014.4 hPa | 0 mm | - | 149 W/m² | - |
| 1777079602 | 18.89° C | 33% | 1014.5 hPa | 0 mm | - | 160 W/m² | - |
| 1777079298 | 18.89° C | 33% | 1014.5 hPa | 0 mm | - | 173 W/m² | - |
| 1777078994 | 19.44° C | 34% | 1014.7 hPa | 0 mm | - | 187 W/m² | - |
| 1777078691 | 19.44° C | 34% | 1014.6 hPa | 0 mm | - | 201 W/m² | - |
| 1777078389 | 19.44° C | 35% | 1014.6 hPa | 0 mm | - | 216 W/m² | - |
| 1777078087 | 20° C | 34% | 1014.6 hPa | 0 mm | - | 230 W/m² | - |
| 1777077782 | 20° C | 34% | 1014.8 hPa | 0 mm | - | 242 W/m² | - |
| 1777077480 | 19.44° C | 33% | 1014.6 hPa | 0 mm | - | 263 W/m² | - |
| 1777077180 | 20° C | 32% | 1014.6 hPa | 0 mm | - | 275 W/m² | - |
| 1777076879 | 20° C | 34% | 1014.7 hPa | 0 mm | - | 290 W/m² | - |
| 1777076575 | 20° C | 33% | 1014.7 hPa | 0 mm | - | 318 W/m² | - |
| 1777076271 | 21.11° C | 33% | 1014.8 hPa | 0 mm | - | 363 W/m² | - |
| 1777075967 | 20.56° C | 35% | 1014.9 hPa | 0 mm | - | 389 W/m² | - |
| 1777075663 | 20.56° C | 35% | 1014.7 hPa | 0 mm | - | 411 W/m² | - |
| 1777075359 | 21.11° C | 38% | 1015 hPa | 0 mm | - | 431 W/m² | - |
| 1777075055 | 20.56° C | 39% | 1014.8 hPa | 0 mm | - | 415 W/m² | - |
| 1777074751 | 19.44° C | 38% | 1015 hPa | 0 mm | - | 410 W/m² | - |
| 1777074446 | 18.89° C | 40% | 1015 hPa | 0 mm | - | 110 W/m² | - |
| 1777074143 | 19.44° C | 40% | 1015 hPa | 0 mm | - | 87 W/m² | - |
| 1777073840 | 20.56° C | 39% | 1015 hPa | 0 mm | - | 81 W/m² | - |
| 1777073535 | 20.56° C | 37% | 1015.2 hPa | 0 mm | - | 453 W/m² | - |
| 1777073230 | 20.56° C | 38% | 1015.1 hPa | 0 mm | - | 461 W/m² | - |
* Rain latest hour (hover to see other rain measurements)
** Current wind speed in m/s (hover to see current wind gust speed)